Location: Austin
(30.3000°N, 97.7500°W)
Time: 11:44:00
(UTC-05:00)

Cosmos 1939 Rocket - Pass Details

Date: 03 April 2024
Orbit: 514 x 562 km, 97.4° (Epoch: 22 April)

Event Time Altitude Azimuth Distance (km) Brightness Sun altitude
Rises 05:38:09 0° 23° (NNE) 2,639 6.9 -21.6°
Reaches altitude 10° 05:40:25 10° 33° (NNE) 1,744 6.1 -21.1°
Maximum altitude 05:43:49 33° 98° (E) 887 4.4 -20.4°
Drops below altitude 10° 05:47:12 10° 163° (SSE) 1,732 5.3 -19.7°
Enters shadow 05:49:19 - 173° (S) 2,574 6.1 -19.3°
